Showing default

IRIDIUM 133, 42955

Orbit data source: Space-Track

IRIDIUM 133, 42955 is a payload satellite owned by Iridium (US) in LEO that was launched on Mon, 09 Oct 2017 UTC via an FALCON 9 launch vehicle from the Air Force Western Test Range (AFWTR). Payload-class satellites include a variety of spacecraft equipped with specific instruments for various scientific and technological missions. These include communications satellites like Starlink; space stations such as the ISS; scientific satellites like the Hubble; Earth observation satellites from companies like Planet Labs, Umbra, and HawkEye 360; GPS; miniature CubeSats for education and research; and military/defense satellites.

Loading next visibility...
Identifier
42955, 2017-061A
Orbit
LEO
Country
Flag of USUS
Related business
Manufacturer
OATK SSG Gilbert
Mission
Operational Commercial Communications
Bus & Motor
ELITEBUS, Unknown motor
Mass
860 kg wet, 700 kg dry
Launch date (UTC)
2017-10-09 (8 years ago)
Launch vehicle
FALCON 9
Launch site
Air Force Western Test Range (AFWTR)
Object type
Payload
Rocket body
Debris
Shape & HBR
Trap Box + 2 Pan, 4.8 m
Radar Cross Section
10.154 m², Large (>1 m²)

Expand to show TLE details & history
Last TLE update: 2 days ago

TLE from 2 days ago
0 IRIDIUM 133
1 42955U 17061A   25306.49318031  .00000138  00000-0  42036-4 0  9996
2 42955  86.3936 120.0588 0002006  89.3842 270.7583 14.34218349422287
Epoch: 2025-11-02T11:50Z
TLE epoch observation values (Epoch: 2025-11-02T11:50:10.778Z)
Latitude
-0.00011°
Longitude
-99.49423°
Altitude
780.697 km
Speed
7.464 km/s
True Right ascension
08h 00m 14s
True Declination
0° 00' 00"
Sunlit
Object was in daylight at epoch
Visualization orbit readout
Latitude
Unknown
Longitude
Unknown
Altitude
Unknown
Speed
Unknown
Apparent Right ascension
Unknown
Apparent Declination
Unknown
Sunlit
N/A
Visualization observer readout
Local Sidereal Time
22:44:46
Azimuth
Unknown
Elevation
Unknown
Doppler factor
Unknown
Orbital elements
Apogee altitude
776.065 km
Perigee altitude
773.195 km
Semi-major axis
7,152.767 km
Eccentricity
0.0002
Inclination
86.3936°
RAAN
120.0588°
Arg. of periapsis
89.3842°
True anomaly
270.73531°
Mean anomaly
270.7583°
Eccentric anomaly
270.74681°
Mean motion
3.58783 °/min
Orbital period
100.34 mins
BSTAR
0.000042036
Loading maneuver chart data...
Computing Atmospheric mass density...
Loading historical data...
Loading historical data...
Loading historical data...
Loading historical data...
Loading historical data...
Loading historical data...
Loading historical data...

Documentation

Showing up to 5 results
|